Creek Data

    Home     View Charts     View Raw Data     Messages

ID Distance Battery Voltage Battery Current Internal Temp Internal Humidity External Temp Solar Input rssi snr Time Stamp Record
67291 13.3 3.84 0 81 46 72 5.1 -72 7 02/25/2026 12:45 PM 50125
67290 13.2 3.77 0 74 49 71 5.1 -72 8 02/25/2026 12:30 PM 50124
67289 13.2 3.77 0 72 49 66 5.1 -73 7 02/25/2026 12:15 PM 50123
67288 13.2 3.77 0 71 50 65 5.1 -72 8 02/25/2026 12:00 PM 50122
67287 13.2 4.07 0 69 51 67 5.1 -72 6 02/25/2026 11:45 AM 50121
67286 13.2 3.77 0 68 51 65 5.1 -71 8 02/25/2026 11:30 AM 50120
67285 13.1 3.77 0 67 51 65 5.1 -72 8 02/25/2026 11:15 AM 50119
67284 13.1 3.77 0 67 51 65 5.1 -72 8 02/25/2026 11:00 AM 50118
67283 13.2 3.77 0 67 50 65 5.1 -72 8 02/25/2026 10:45 AM 50117
67282 13.1 3.77 0 66 50 65 5.1 -72 8 02/25/2026 10:30 AM 50116
67281 13.1 3.77 0 65 50 64 5.1 -72 8 02/25/2026 10:15 AM 50115
67280 13.1 3.77 0 64 50 63 5.1 -72 7 02/25/2026 10:00 AM 50114
67279 13.1 3.77 0 63 50 61 5.1 -72 8 02/25/2026 09:45 AM 50113
67278 13.1 3.93 17 62 51 61 4.5 -73 8 02/25/2026 09:30 AM 50112
67277 13.1 3.79 20 61 51 60 4.5 -74 8 02/25/2026 09:15 AM 50111
67276 13.1 3.79 14 61 50 60 4.5 -73 8 02/25/2026 09:00 AM 50110
67275 13.1 3.86 21 61 50 60 4.5 -74 8 02/25/2026 08:45 AM 50109
67274 13.1 3.96 5 60 50 59 4.6 -74 8 02/25/2026 08:30 AM 50108
67273 13.0 3.83 6 59 50 60 4.5 -74 8 02/25/2026 08:15 AM 50107
67272 13.0 3.82 5 58 51 58 4.5 -74 9 02/25/2026 08:00 AM 50106
67271 13.0 3.82 0 57 51 57 4.5 -74 7 02/25/2026 07:45 AM 50105
67270 13.0 3.60 0 57 52 57 4.5 -74 8 02/25/2026 07:30 AM 50104
67269 13.0 3.57 -5 56 52 56 4.5 -75 8 02/25/2026 07:15 AM 50103
67268 13.0 3.51 -10 56 52 56 4.5 -74 8 02/25/2026 07:00 AM 50102
67267 13.0 3.54 -5 56 52 56 1.1 -76 9 02/25/2026 06:45 AM 50101